Flag for Czech Republic Weather past 2 weeks in Liberec, Czech Republic

Now
64 °F

Lots of rain. Overcast.


Feels Like: 64 °F
Forecast: 51 / 62 °F
Wind: 2 mph from South

Location: Liberec

Current Time: Jul 8, 2015 at 4:25:01 AM

Latest Report: Jul 8, 2015 at 3:00 AM


Visibility: 13 mi

Pressure: 29.72 "Hg

Humidity: 95%

Dew point: 63 °F

Location of LiberecLocation

Historic Weather in Liberec — Graph

°F

Liberec temperature yesterday

Maximum temperature yesterday: 88 °F (at 6:00 PM)
Minimum temperature yesterday: 52 °F (at 3:00 AM)
Average temperature yesterday: 74 °F

Past Weeks' High & Low Weather Summary

 TemperatureHumidityPressure
High91 °F (Jul 4, 5:00 PM)97% (Jun 24, 4:00 AM)30.30 "Hg (Jun 24, 4:00 AM)
Low42 °F (Jun 25, 2:00 AM)27% (Jul 3, 5:00 PM)29.62 "Hg (Jul 7, 11:00 PM)
Average66 °F64%30.10 "Hg
* Reported Jun 23 3:00 AM — Jul 8 3:00 AM, Liberec, Weather by CustomWeather, © 2015

Note: Actual official high and low records may vary slightly from our data, if they occured in-between our weather recording intervals... More about our weather records

Advertising

Liberec weather history for previous 24 hours

 ConditionsComfort  
Time TempWeatherWind HumidityBarometerVisibility
3:00 AM
Wed, Jul 8
64 °FLots of rain. Overcast.2 mph95%29.72 "Hg12 mi
2:00 AM65 °FLots of rain. Overcast.2 mph95%29.74 "Hg8 mi
1:00 AM65 °FRain showers. Overcast.2 mph90%29.73 "Hg12 mi
12:00 AM77 °FWarm.3 mph48%29.63 "Hg12 mi
11:00 PM
Tue, Jul 7
79 °FWarm.5 mph46%29.62 "Hg12 mi
10:00 PM77 °FPassing clouds.3 mph50%29.67 "Hg17 mi
9:00 PM78 °FPassing clouds.3 mph48%29.70 "Hg19 mi
8:00 PM84 °FPassing clouds.3 mph39%29.71 "Hg19 mi
7:00 PM87 °FPleasantly warm.3 mph34%29.73 "Hg12 mi
6:00 PM88 °FPleasantly warm.3 mph33%29.77 "Hg12 mi
5:00 PM87 °FPassing clouds.3 mph32%29.80 "Hg22 mi
4:00 PM87 °FPassing clouds.5 mph33%29.83 "Hg22 mi
3:00 PM86 °FPassing clouds.5 mph33%29.85 "Hg22 mi
2:00 PM84 °FPassing clouds.3 mph34%29.89 "Hg22 mi
1:00 PM83 °FPassing clouds.2 mph35%29.92 "Hg22 mi
12:00 PM80 °FPassing clouds.3 mph38%29.94 "Hg22 mi
11:00 AM78 °FPassing clouds.5 mph43%29.97 "Hg19 mi
10:00 AM77 °FPassing clouds.3 mph39%29.98 "Hg19 mi
9:00 AM73 °FPassing clouds.3 mph44%30.01 "Hg19 mi
8:00 AM70 °FPassing clouds.2 mph54%30.03 "Hg19 mi
7:00 AM64 °FMild.2 mph67%30.06 "Hg12 mi
6:00 AM57 °FCool.2 mph86%30.09 "Hg12 mi
4:00 AM53 °FCool.1 mph90%30.11 "Hg12 mi
Weather by CustomWeather, © 2015

See weather overviewHow to use our weather pages